This is the latest recevied weather packets stored in our database for station/object IU3IOK-3. If no packets are shown the sender has not sent any weather packets the latest 10 day(s).
| Time | Temp. | Humidity | Pressure | Rain* | Wind** | Luminosity | Snow |
|---|---|---|---|---|---|---|---|
| 1777447601 | 20° C | 53% | 1016.7 hPa | - | - | - | - |
| 1777446701 | 19.44° C | 55% | 1016.6 hPa | - | - | - | - |
| 1777445801 | 18.89° C | 57% | 1016.5 hPa | - | - | - | - |
| 1777444901 | 18.89° C | 59% | 1016.4 hPa | - | - | - | - |
| 1777444001 | 18.33° C | 60% | 1016.3 hPa | - | - | - | - |
| 1777443101 | 18.33° C | 61% | 1016.2 hPa | - | - | - | - |
| 1777442201 | 18.33° C | 62% | 1016 hPa | - | - | - | - |
| 1777441301 | 18.33° C | 63% | 1015.9 hPa | - | - | - | - |
| 1777440401 | 18.33° C | 63% | 1016 hPa | - | - | - | - |
| 1777439501 | 17.78° C | 63% | 1016 hPa | - | - | - | - |
| 1777438601 | 17.78° C | 64% | 1016 hPa | - | - | - | - |
| 1777437701 | 17.78° C | 63% | 1015.8 hPa | - | - | - | - |
| 1777436801 | 17.78° C | 63% | 1015.8 hPa | - | - | - | - |
| 1777435901 | 17.78° C | 64% | 1015.6 hPa | - | - | - | - |
| 1777435001 | 17.78° C | 63% | 1015.5 hPa | - | - | - | - |
| 1777434101 | 17.78° C | 62% | 1015.4 hPa | - | - | - | - |
| 1777433201 | 17.78° C | 62% | 1015.4 hPa | - | - | - | - |
| 1777432301 | 17.78° C | 63% | 1015.6 hPa | - | - | - | - |
| 1777431401 | 17.78° C | 62% | 1015.7 hPa | - | - | - | - |
| 1777430501 | 18.33° C | 62% | 1015.6 hPa | - | - | - | - |
| 1777429601 | 18.33° C | 61% | 1015.6 hPa | - | - | - | - |
| 1777428701 | 18.33° C | 61% | 1015.7 hPa | - | - | - | - |
| 1777427801 | 18.33° C | 61% | 1015.7 hPa | - | - | - | - |
| 1777426901 | 18.33° C | 59% | 1015.6 hPa | - | - | - | - |
| 1777426001 | 18.33° C | 59% | 1015.4 hPa | - | - | - | - |
* Rain since midnight (hover to see other rain measurements)
** Current wind speed in m/s (hover to see current wind gust speed)